| time (UTC) | temp C | wind direction | speed KPH | gust KPH | rain 1hr cm | rain 24hr cm | rain mn cm | humidity % | barometer mb |
| 20260904040049 | 26 | 169 | 0.0 | 4.8 | 0.00 | 2.79 | 0.00 | 87 | 1012.2 |
| 20260904034518 | 26 | 159 | 0.0 | 1.6 | 0.00 | 2.79 | 2.79 | 87 | 1012.4 |
| 20260904033104 | 26 | 73 | 0.0 | 1.6 | 0.00 | 2.79 | 2.79 | 86 | 1012.6 |
| 20260904031525 | 26 | 166 | 0.0 | 3.2 | 0.00 | 2.79 | 2.79 | 86 | 1012.7 |
| 20260904024533 | 25 | 157 | 0.0 | 0.0 | 0.00 | 2.79 | 2.79 | 86 | 1012.3 |
| 20260904023113 | 25 | 158 | 0.0 | 1.6 | 0.00 | 2.79 | 2.79 | 86 | 1012.3 |
| 20260904021541 | 25 | 55 | 0.0 | 0.0 | 0.00 | 2.79 | 2.79 | 86 | 1012.6 |
| 20260904020009 | 25 | 56 | 0.0 | 0.0 | 0.00 | 2.79 | 2.79 | 86 | 1012.9 |
| 20260904014605 | 25 | 21 | 0.0 | 0.0 | 0.00 | 2.79 | 2.79 | 86 | 1013.0 |
| 20260904013028 | 26 | 20 | 0.0 | 0.0 | 0.00 | 2.79 | 2.79 | 85 | 1013.1 |
| 20260904011610 | 26 | 20 | 0.0 | 0.0 | 0.00 | 2.79 | 2.79 | 84 | 1013.2 |
| 20260904010045 | 26 | 24 | 0.0 | 0.0 | 0.00 | 2.79 | 2.79 | 84 | 1013.4 |
| 20260904004513 | 26 | 339 | 0.0 | 0.0 | 0.00 | 2.79 | 2.79 | 83 | 1013.4 |
| 20260904003052 | 26 | 343 | 0.0 | 0.0 | 0.00 | 2.79 | 2.79 | 83 | 1013.0 |
| 20260904001526 | 26 | 96 | 0.0 | 1.6 | 0.00 | 2.79 | 2.79 | 82 | 1012.9 |
| 20260904000113 | 26 | 96 | 0.0 | 0.0 | 0.00 | 2.79 | 2.79 | 82 | 1012.7 |
| 20260903234520 | 27 | 354 | 0.0 | 0.0 | 0.00 | 2.79 | 2.79 | 80 | 1012.4 |
| 20260903233126 | 27 | 231 | 0.0 | 1.6 | 0.00 | 2.79 | 2.79 | 78 | 1012.4 |
| 20260903231536 | 28 | 137 | 0.0 | 1.6 | 0.00 | 2.79 | 2.79 | 77 | 1012.3 |
| 20260903230001 | 28 | 188 | 0.0 | 3.2 | 0.00 | 2.79 | 2.79 | 75 | 1012.1 |
| 20260903224547 | 28 | 355 | 0.0 | 1.6 | 0.00 | 2.79 | 2.79 | 74 | 1012.0 |
| 20260903223024 | 29 | 168 | 0.0 | 4.8 | 0.00 | 2.79 | 2.79 | 74 | 1012.0 |
| 20260903221559 | 29 | 64 | 0.0 | 4.8 | 0.00 | 2.79 | 2.79 | 74 | 1012.1 |
| 20260903220025 | 29 | 186 | 1.6 | 4.8 | 0.00 | 2.79 | 2.79 | 75 | 1012.0 |
| 20260903214606 | 29 | 85 | 0.0 | 8.0 | 0.00 | 2.79 | 2.79 | 75 | 1012.2 |
| 20260903213044 | 29 | 78 | 1.6 | 8.0 | 0.00 | 2.79 | 2.79 | 76 | 1012.1 |
| 20260903211612 | 29 | 179 | 1.6 | 6.4 | 0.00 | 2.79 | 2.79 | 76 | 1012.3 |
| 20260903210057 | 30 | 164 | 0.0 | 6.4 | 0.00 | 2.79 | 2.79 | 76 | 1012.3 |
| 20260903204506 | 30 | 72 | 1.6 | 6.4 | 0.00 | 2.82 | 2.79 | 75 | 1012.5 |
| 20260903203041 | 29 | 131 | 1.6 | 8.0 | 0.00 | 2.82 | 2.79 | 76 | 1012.3 |
| 20260903201515 | 30 | 68 | 1.6 | 9.7 | 0.00 | 2.82 | 2.79 | 74 | 1012.5 |
| 20260903200049 | 30 | 169 | 1.6 | 6.4 | 0.00 | 2.82 | 2.79 | 74 | 1012.7 |
| 20260903194534 | 30 | 53 | 0.0 | 11.3 | 0.00 | 2.84 | 2.79 | 72 | 1013.1 |
| 20260903193103 | 30 | 72 | 1.6 | 8.0 | 0.00 | 2.84 | 2.79 | 72 | 1013.2 |
| 20260903191529 | 30 | 354 | 0.0 | 6.4 | 0.00 | 2.84 | 2.79 | 74 | 1013.5 |
| 20260903190110 | 30 | 194 | 1.6 | 6.4 | 0.00 | 2.84 | 2.79 | 73 | 1013.5 |
| 20260903184548 | 30 | 352 | 1.6 | 4.8 | 0.00 | 2.84 | 2.79 | 73 | 1013.6 |
| 20260903183009 | 30 | 152 | 1.6 | 6.4 | 0.00 | 2.84 | 2.79 | 74 | 1013.8 |
| 20260903181550 | 30 | 167 | 3.2 | 8.0 | 0.00 | 2.84 | 2.79 | 73 | 1013.9 |
| 20260903180026 | 30 | 70 | 1.6 | 9.7 | 0.00 | 2.84 | 2.79 | 74 | 1013.7 |
| 20260903174602 | 30 | 166 | 1.6 | 6.4 | 0.00 | 2.84 | 2.79 | 74 | 1014.1 |
| 20260903173034 | 30 | 36 | 1.6 | 6.4 | 0.00 | 2.84 | 2.79 | 76 | 1014.6 |
| 20260903171505 | 29 | 159 | 0.0 | 6.4 | 0.00 | 2.84 | 2.79 | 78 | 1014.8 |
| 20260903170053 | 29 | 138 | 1.6 | 6.4 | 0.00 | 2.84 | 2.79 | 76 | 1015.0 |
| 20260903164510 | 30 | 117 | 1.6 | 6.4 | 0.00 | 2.84 | 2.79 | 74 | 1015.2 |
| 20260903163056 | 30 | 88 | 1.6 | 8.0 | 0.00 | 2.84 | 2.79 | 75 | 1015.1 |
| 20260903161531 | 29 | 165 | 6.4 | 14.5 | 0.00 | 2.84 | 2.79 | 74 | 1014.9 |
| 20260903160109 | 29 | 169 | 1.6 | 14.5 | 0.00 | 2.84 | 2.79 | 76 | 1015.1 |
| 20260903154538 | 28 | 161 | 4.8 | 12.9 | 0.00 | 2.84 | 2.79 | 76 | 1015.0 |
| 20260903153006 | 28 | 91 | 3.2 | 16.1 | 0.00 | 2.84 | 2.79 | 79 | 1014.9 |
| 20260903151549 | 28 | 66 | 3.2 | 14.5 | 0.00 | 2.84 | 2.79 | 79 | 1014.6 |
| 20260903150019 | 27 | 142 | 4.8 | 14.5 | 0.00 | 2.84 | 2.79 | 81 | 1014.4 |
| 20260903144554 | 27 | 184 | 3.2 | 12.9 | 0.00 | 2.84 | 2.79 | 83 | 1014.4 |
| 20260903143020 | 26 | 158 | 4.8 | 9.7 | 0.00 | 2.84 | 2.79 | 87 | 1014.5 |
| 20260903141611 | 25 | 159 | 4.8 | 9.7 | 0.00 | 2.84 | 2.79 | 91 | 1014.6 |
| 20260903140038 | 23 | 69 | 1.6 | 12.9 | 0.03 | 2.84 | 2.79 | 91 | 1014.3 |
| 20260903134501 | 23 | 140 | 3.2 | 11.3 | 0.05 | 2.84 | 2.79 | 92 | 1014.4 |
| 20260903133040 | 23 | 194 | 3.2 | 11.3 | 0.05 | 2.84 | 2.79 | 92 | 1014.6 |
| 20260903131510 | 23 | 97 | 0.0 | 9.7 | 0.05 | 2.84 | 2.79 | 92 | 1015.2 |
| 20260903130054 | 23 | 176 | 1.6 | 8.0 | 0.05 | 2.82 | 2.77 | 93 | 1014.5 |
| 20260903124517 | 23 | 48 | 0.0 | 0.0 | 0.03 | 2.79 | 2.74 | 94 | 1016.1 |
| 20260903123106 | 23 | 77 | 0.0 | 4.8 | 0.03 | 2.79 | 2.74 | 94 | 1016.8 |
| 20260903121549 | 23 | 138 | 1.6 | 8.0 | 0.03 | 2.79 | 2.74 | 94 | 1016.6 |
| 20260903120112 | 22 | 155 | 0.0 | 3.2 | 0.00 | 2.77 | 2.72 | 94 | 1016.8 |
| 20260903114543 | 22 | 193 | 0.0 | 0.0 | 0.00 | 2.77 | 2.72 | 94 | 1016.7 |
| 20260903113013 | 22 | 198 | 0.0 | 0.0 | 0.00 | 2.77 | 2.72 | 94 | 1016.5 |
| 20260903111558 | 22 | 189 | 0.0 | 0.0 | 0.03 | 2.77 | 2.72 | 95 | 1016.8 |
| 20260903110033 | 22 | 189 | 0.0 | 0.0 | 0.20 | 2.77 | 2.72 | 95 | 1016.7 |
| 20260903104503 | 22 | 216 | 0.0 | 0.0 | 0.66 | 2.77 | 2.72 | 94 | 1017.1 |
| 20260903103044 | 22 | 224 | 0.0 | 0.0 | 0.69 | 2.77 | 2.72 | 94 | 1017.1 |
| 20260903101513 | 22 | 8 | 0.0 | 4.8 | 0.66 | 2.74 | 2.69 | 94 | 1017.0 |
| 20260903100054 | 22 | 13 | 4.8 | 11.3 | 0.48 | 2.57 | 2.51 | 94 | 1017.5 |
| 20260903094527 | 22 | 233 | 0.0 | 6.4 | 0.03 | 2.11 | 2.06 | 94 | 1016.6 |
| 20260903093108 | 23 | 6 | 0.0 | 0.0 | 0.00 | 2.08 | 2.03 | 94 | 1016.5 |
| 20260903091549 | 23 | 200 | 0.0 | 0.0 | 0.00 | 2.08 | 2.03 | 94 | 1016.0 |
| 20260903090007 | 23 | 322 | 0.0 | 0.0 | 0.18 | 2.08 | 2.03 | 94 | 1016.1 |
| 20260903084549 | 23 | 55 | 0.0 | 0.0 | 0.36 | 2.08 | 2.03 | 94 | 1016.2 |
| 20260903083017 | 23 | 203 | 0.0 | 1.6 | 0.76 | 2.08 | 2.03 | 94 | 1015.8 |
| 20260903081558 | 22 | 183 | 0.0 | 1.6 | 0.81 | 2.08 | 2.03 | 94 | 1016.1 |
| 20260903080026 | 22 | 32 | 0.0 | 3.2 | 1.85 | 1.91 | 1.85 | 94 | 1016.3 |
| 20260903074609 | 22 | 214 | 0.0 | 11.3 | 1.68 | 1.73 | 1.68 | 94 | 1016.5 |
| 20260903073037 | 23 | 233 | 0.0 | 8.0 | 1.27 | 1.32 | 1.27 | 93 | 1016.7 |
| 20260903071613 | 23 | 159 | 3.2 | 14.5 | 1.22 | 1.27 | 1.22 | 93 | 1016.7 |
| 20260903070047 | 24 | 37 | 0.0 | 1.6 | 0.00 | 0.05 | 0.00 | 92 | 1017.3 |
| 20260903064515 | 24 | 158 | 1.6 | 3.2 | 0.00 | 0.05 | 0.00 | 92 | 1015.8 |
| 20260903063101 | 24 | 167 | 0.0 | 1.6 | 0.00 | 0.05 | 0.00 | 92 | 1015.7 |
| 20260903061529 | 24 | 21 | 0.0 | 3.2 | 0.00 | 0.05 | 0.00 | 92 | 1015.9 |
| 20260903060123 | 24 | 153 | 0.0 | 0.0 | 0.00 | 0.05 | 0.00 | 92 | 1016.0 |
| 20260903054533 | 23 | 187 | 0.0 | 0.0 | 0.00 | 0.05 | 0.00 | 92 | 1016.1 |
| 20260903053001 | 23 | 167 | 0.0 | 3.2 | 0.00 | 0.05 | 0.00 | 92 | 1016.3 |
| 20260903051544 | 23 | 193 | 0.0 | 1.6 | 0.00 | 0.05 | 0.00 | 91 | 1016.2 |
| 20260903050018 | 24 | 148 | 0.0 | 0.0 | 0.00 | 0.05 | 0.00 | 91 | 1016.5 |
| 20260903044546 | 24 | 212 | 0.0 | 0.0 | 0.00 | 0.05 | 0.00 | 91 | 1016.7 |
| 20260903043024 | 24 | 151 | 0.0 | 0.0 | 0.00 | 0.05 | 0.00 | 91 | 1016.7 |
| 20260903041558 | 24 | 193 | 0.0 | 0.0 | 0.00 | 0.05 | 0.00 | 91 | 1016.7 |